CANX-4

导读

CANX-4卫星于2014年6月30日由加拿大发射,作为一颗小型技术验证卫星,旨在测试太空新技术与空间环境感知能力。它承载着航天科研探索使命,服役期间为加拿大乃至全球航天领域积累了低轨运行数据,对后续微小卫星技术发展与空间任务规划提供了重要参考。

基本信息
目录编号:
40055
目录名称:
CANX-4
国际标识:
2014-034C
轨道中心:
EARTH
卫星名称:
CANX-4
卫星全名:
--
卫星状态:
在轨 (已飞行4450 天)
发射日期:
2014-06-30 UTC
国别 :
加拿大 (CA)
星等 :
--
轨道信息
数据来源 国际轨道数据
星历时间: 2026-09-05T12:42:18+0800
12小时前
查看轨道信息
半长轴: 7003.105km
偏心率: 0.0013946
轨道倾角: 98.298°
近地点辐角 111.368°
升交点赤经 126.400°
平近点角 248.902°
近地点: 615.201km
远地点: 634.735km
周期: 97.207分钟
每日圈数: 14.813812
详细信息
使用方式:
暂无
2D轨道图
3D轨道图
轨道高度分析图
轨道倾角分析图
轨道综合分析图
查看轨道综合分析图